カタログに戻る

STARLINK-34140

運用中通信VLEO
NORAD 64085·PAYLOAD·🇺🇸 United States

打ち上げ May 21, 2025 から Cape Canaveral Space Force Station

Loading…

次のパス (今後24時間)

TLE

最新Source: CelesTrak SupGP

元期: Sep 14, 2026, 23:00 UTC

1 64085C 25107X   26257.95881944 -.00003185  00000+0 -11532-3 0  2578
2 64085  43.0020 212.7014 0001501 271.1408 179.8267 15.27585786    16

AllMySatでSTARLINK-34140をリアルタイム追跡

Download on the App Store